sat.trackr.live / text

‹ back to catalog

STARLINK-35298

NORAD 65842 · 2025-221V

PAYLOAD ACTIVE UNKNOWN

§ Identity

Operator
Country
US
Launch date
2025-09-29
Launch site
AFWTR
Launch vehicle
Mass (kg)
RCS (m²)

Purposes: comms

External: N2YO · Heavens-Above · Gunter

§ Orbital elements

Epoch: 2026-05-25T03:27:04.059936Z

Period
93.85 min
Inclination
53.1585°
Eccentricity
0.0001072
Mean motion
15.34405818 rev/d
Perigee alt
462.0 km
Apogee alt
463.4 km
Semi-major
6,840.8 km
B*
4.1669e-4
RAAN
92.8785°
Arg perigee
84.3070°
Mean anomaly
275.8055°
Rev number
3,644

§ Raw data

STARLINK-352981 65842U 25221V   26145.14379699  .00013731  00000+0  41669-3 0  99962 65842  53.1585  92.8785 0001072  84.3070 275.8055 15.34405818 36443

JSON: /api/v1/satellites/65842 · /tle

For live sub-satellite position, see the globe view (requires WebGL).

§ Visibility from observer

Set your observer location to see the next 7 days of passes ≥ 10°. The values pass through the URL so the page stays shareable.

No JS? Fill the form by hand. The geolocation button needs JavaScript.